This is the latest recevied weather packets stored in our database for station/object SQ7IQO. If no packets are shown the sender has not sent any weather packets the latest 10 day(s).
| Time | Temp. | Humidity | Pressure | Rain* | Wind** | Luminosity | Snow |
|---|---|---|---|---|---|---|---|
| 1788156105 | 24.44° C | 62% | 1015.4 hPa | 0 mm | 0 m/s | - | - |
| 1788156045 | 23.89° C | 64% | 1015.4 hPa | 0 mm | 0 m/s | - | - |
| 1788155985 | 23.33° C | 66% | 1015.4 hPa | 0 mm | 0 m/s | - | - |
| 1788155924 | 22.22° C | 68% | 1015.4 hPa | 0 mm | 0 m/s | - | - |
| 1788155865 | 21.67° C | 71% | 1015.4 hPa | 0 mm | 0 m/s | - | - |
| 1788155805 | 21.11° C | 72% | 1015.4 hPa | 0 mm | 0 m/s | - | - |
| 1788155745 | 20.56° C | 74% | 1015.4 hPa | 0 mm | 0 m/s | - | - |
| 1788155685 | 20.56° C | 75% | 1015.4 hPa | 0 mm | 0 m/s | - | - |
| 1788155625 | 20° C | 76% | 1015.4 hPa | 0 mm | 0 m/s | - | - |
| 1788155565 | 20° C | 76% | 1015.4 hPa | 0 mm | 0 m/s | - | - |
| 1788155505 | 20° C | 76% | 1015.4 hPa | 0 mm | 0 m/s | - | - |
| 1788155445 | 20° C | 77% | - | 0 mm | 0 m/s | - | - |
| 1788155385 | 19.44° C | 77% | 1015.4 hPa | 0 mm | 0 m/s | - | - |
| 1788155325 | 19.44° C | 77% | 1015.8 hPa | 0 mm | 0 m/s | - | - |
| 1788155265 | 19.44° C | 78% | 1015.4 hPa | 0 mm | 0 m/s | - | - |
| 1788155205 | 18.89° C | 80% | 1015.5 hPa | 0 mm | 0 m/s | - | - |
| 1788155145 | 18.89° C | 80% | 1015.4 hPa | 0 mm | 0 m/s | - | - |
| 1788155085 | 18.89° C | 81% | 1589.2 hPa | 0 mm | 0 m/s | - | - |
| 1788155025 | 18.33° C | 81% | 1227.8 hPa | 0 mm | 0 m/s | - | - |
| 1788154965 | 18.33° C | 81% | 1015.5 hPa | 0 mm | 0 m/s | - | - |
| 1788154905 | 18.33° C | 81% | 1015.4 hPa | 0 mm | 0 m/s | - | - |
| 1788154845 | 18.33° C | 82% | 1015.4 hPa | 0 mm | 0 m/s | - | - |
| 1788154785 | 17.78° C | 82% | 1012.5 hPa | 0 mm | 0 m/s | - | - |
| 1788154725 | 17.78° C | 84% | 1015.4 hPa | 0 mm | 0 m/s | - | - |
| 1788154665 | 17.78° C | 84% | 1014.9 hPa | 0 mm | 0 m/s | - | - |
* Rain latest hour (hover to see other rain measurements)
** Current wind speed in m/s (hover to see current wind gust speed)